Weather History for PADE - September, 2012

Change the Weather History Date:

Friday, September 21, 2012

  Actual Average (PAOT) Record (PAOT)
Temperature  
Mean Temperature 36 °F 40 °F  
Max Temperature 42 °F 44 °F 66 °F (1995)
Min Temperature 30 °F 36 °F 18 °F (1992)
Degree Days  
Heating Degree Days 30 25  
Month to date heating degree days 429  
Since 1 July heating degree days 1167  
Cooling Degree Days 0    
Month to date cooling degree days  
Year to date cooling degree days  
Moisture  
Dew Point 34 °F    
Average Humidity 84    
Maximum Humidity 93    
Minimum Humidity 70    
Precipitation  
Precipitation 0.04 in 0.06 in 0.80 in (1990)
Month to date precipitation 1.14  
Year to date precipitation 8.02  
Snow  
Snow 0.00 in 0.00 in 1.00 in (1930)
Month to date snowfall 0.3  
Since 1 July snowfall 0.3  
Since 1 September snowfall 0.3  
Snow Depth -    
Sea Level Pressure  
Sea Level Pressure 29.78 in    
Wind  
Wind Speed 7 mph (WNW)    
Max Wind Speed 10 mph    
Max Gust Speed -    
Visibility 10 miles    
Events Rain    
T = Trace of Precipitation, MM = Missing Value Source: NWS Daily Summary

Daily Weather History Graph

Daily Weather History Graph

Search for Another Location

Airport or City:

Trip Planner

Search our weather history database for the weather conditions in past years. The results will help you decide how hot, cold, wet, or windy it might be!

Date:

Astronomy

Sep. 21, 2012 Rise Set
Actual Time 8:32 AM AKDT 8:53 PM AKDT
Civil Twilight 7:40 AM AKDT 9:44 PM AKDT
Nautical Twilight 6:36 AM AKDT 10:48 PM AKDT
Astronomical Twilight 5:19 AM AKDT 12:03 AM AKDT
Moon 6:07 PM AKDT (9/21) 10:07 PM AKDT (9/21)
Length of Visible Light 14h 04m
Length of Day
12h 20m
Waxing Crescent, 39% of the Moon is Illuminated
Sep 21
Waxing Crescent
Sep 22
First Quarter
Sep 29
Full
Oct 7
Last Quarter
Oct 15
New

Hourly Weather History & Observations

Time (AKDT) Temp. Windchill Dew Point Humidity Pressure Visibility Wind Dir Wind Speed Gust Speed Precip Events Conditions
12:53 AM 39.9 °F 33.9 °F 35.1 °F 83% 29.70 in 10.0 mi WNW 9.2 mph - N/A   Overcast
1:25 AM 39.2 °F 33.0 °F 35.6 °F 87% 29.71 in 6.0 mi West 9.2 mph - 0.00 in Rain Light Rain
1:53 AM 37.9 °F 31.5 °F 35.1 °F 89% 29.71 in 5.0 mi West 9.2 mph - 0.00 in Rain Light Rain
2:24 AM 37.4 °F 30.8 °F 35.6 °F 93% 29.71 in 7.0 mi West 9.2 mph - 0.03 in Rain Light Rain
2:38 AM 37.4 °F 31.4 °F 33.8 °F 87% 29.71 in 9.0 mi West 8.1 mph - 0.04 in Rain Light Rain
2:45 AM 37.4 °F 30.8 °F 33.8 °F 87% 29.72 in 9.0 mi West 9.2 mph - 0.04 in Rain Light Rain
2:53 AM 37.0 °F 29.8 °F 34.0 °F 89% 29.72 in 10.0 mi West 10.4 mph - 0.04 in Rain Light Rain
3:04 AM 37.4 °F 30.8 °F 33.8 °F 87% 29.71 in 10.0 mi West 9.2 mph - 0.00 in Rain Light Rain
3:13 AM 37.4 °F 30.8 °F 33.8 °F 87% 29.71 in 10.0 mi West 9.2 mph - 0.00 in Rain Light Rain
4:50 AM 35.6 °F 30.7 °F 33.8 °F 93% 29.72 in 10.0 mi SW 5.8 mph - N/A   Overcast
4:53 AM 35.1 °F 30.1 °F 33.1 °F 92% 29.73 in 10.0 mi SW 5.8 mph - N/A   Overcast
5:53 AM 35.1 °F 29.3 °F 32.0 °F 89% 29.73 in 10.0 mi WSW 6.9 mph - N/A   Overcast
6:53 AM 34.0 °F 27.2 °F 30.9 °F 89% 29.75 in 10.0 mi WSW 8.1 mph - N/A   Overcast
7:53 AM 33.1 °F 26.9 °F 30.9 °F 92% 29.76 in 10.0 mi SW 6.9 mph - N/A   Overcast
8:53 AM 32.0 °F 26.4 °F 30.0 °F 92% 29.77 in 10.0 mi SSW 5.8 mph - N/A   Scattered Clouds
9:53 AM 30.9 °F 25.2 °F 28.9 °F 92% 29.78 in 10.0 mi SSW 5.8 mph - N/A   Clear
10:53 AM 32.0 °F 25.6 °F 30.0 °F 92% 29.81 in 10.0 mi SSW 6.9 mph - N/A   Scattered Clouds
11:27 AM 35.6 °F 29.9 °F 33.8 °F 93% 29.81 in 10.0 mi SSW 6.9 mph - N/A   Mostly Cloudy
11:36 AM 35.6 °F 30.7 °F 33.8 °F 93% 29.82 in 10.0 mi SSW 5.8 mph - N/A   Overcast
11:53 AM 37.0 °F 31.6 °F 34.0 °F 89% 29.82 in 10.0 mi SW 6.9 mph - N/A   Overcast
12:10 PM 37.4 °F 32.1 °F 33.8 °F 87% 29.82 in 10.0 mi SW 6.9 mph - N/A   Mostly Cloudy
12:53 PM 37.9 °F 33.5 °F 35.1 °F 89% 29.84 in 10.0 mi South 5.8 mph - N/A   Overcast
1:10 PM 39.2 °F 35.9 °F 35.6 °F 87% 29.84 in 10.0 mi Variable 4.6 mph - N/A   Overcast
1:22 PM 39.2 °F 35.9 °F 35.6 °F 87% 29.84 in 10.0 mi Variable 4.6 mph - N/A   Overcast
1:39 PM 39.2 °F 37.0 °F 33.8 °F 81% 29.84 in 10.0 mi NW 3.5 mph - N/A   Mostly Cloudy
1:53 PM 39.9 °F 37.8 °F 34.0 °F 79% 29.84 in 10.0 mi WNW 3.5 mph - N/A   Overcast
2:09 PM 41.0 °F 39.0 °F 33.8 °F 76% 29.84 in 10.0 mi West 3.5 mph - N/A   Overcast
2:53 PM 39.9 °F 37.8 °F 34.0 °F 79% 29.84 in 10.0 mi NW 3.5 mph - N/A   Mostly Cloudy
3:22 PM 41.0 °F 38.0 °F 33.8 °F 76% 29.83 in 10.0 mi North 4.6 mph - N/A   Overcast
3:53 PM 41.0 °F 38.0 °F 34.0 °F 76% 29.83 in 10.0 mi NW 4.6 mph - N/A   Overcast
4:15 PM 41.0 °F 38.0 °F 33.8 °F 76% 29.83 in 10.0 mi NNE 4.6 mph - N/A   Overcast
4:53 PM 41.0 °F 39.0 °F 32.0 °F 70% 29.83 in 10.0 mi North 3.5 mph - N/A   Overcast
5:44 PM 41.0 °F 39.0 °F 33.8 °F 76% 29.82 in 10.0 mi NNE 3.5 mph - N/A   Overcast
5:53 PM 41.0 °F 38.0 °F 33.1 °F 73% 29.83 in 10.0 mi NNE 4.6 mph - N/A   Overcast
6:16 PM 41.0 °F 38.0 °F 33.8 °F 76% 29.82 in 10.0 mi NE 4.6 mph - N/A   Overcast
6:53 PM 39.9 °F 36.7 °F 34.0 °F 79% 29.82 in 10.0 mi NNE 4.6 mph - 0.00 in   Overcast
8:53 PM 39.9 °F 35.8 °F 34.0 °F 79% 29.80 in 10.0 mi NNE 5.8 mph - N/A   Overcast
9:53 PM 39.9 °F 35.1 °F 34.0 °F 79% 29.80 in 10.0 mi NNE 6.9 mph - N/A   Overcast
10:48 PM 41.0 °F 34.7 °F 35.6 °F 81% 29.78 in 10.0 mi NNE 10.4 mph - N/A   Overcast
10:53 PM 41.0 °F 34.7 °F 35.1 °F 79% 29.78 in 10.0 mi NNE 10.4 mph - N/A   Overcast
11:53 PM 41.0 °F 35.8 °F 35.1 °F 79% 29.77 in 10.0 mi NNE 8.1 mph - N/A   Overcast